Location: Burgberg
(50.1428°N, 11.0671°E)
Time: 21:16:05
(UTC+00:00)

COSMO-SKYMED 1 - Pass Details

Date: 26 January 2020
Orbit: 621 x 623 km, 97.9° (Epoch: 17 February)

Event Time Altitude Azimuth Distance (km) Brightness Sun altitude
Rises 05:25:21 0° 202° (SSW) 2,892 5.9 -14.8°
Reaches altitude 10° 05:27:59 10° 218° (SW) 1,992 4.9 -14.4°
Maximum altitude 05:31:18 21° 268° (W) 1,406 3.8 -13.9°
Enters shadow 05:31:19 21° 269° (W) 1,407 3.8 -13.9°
